Monarch Pass, CO

9:48 PM MDT on May 29, 2017 (GMT -0600)
Monarch Pass

Weather History for KMYP - March, 2014

Change the Weather History Date:

Thursday, March 27, 2014

  Actual Average (KALS) Record (KALS)
Temperature  
Mean Temperature 17 °F -  
Max Temperature 19 °F 51 °F 69 °F (2012)
Min Temperature 15 °F 21 °F -3 °F (2016)
Degree Days  
Heating Degree Days 48    
Moisture  
Dew Point 15 °F    
Average Humidity 89    
Maximum Humidity 93    
Minimum Humidity 86    
Precipitation  
Precipitation 0.00 in - - ()
Sea Level Pressure  
Sea Level Pressure 29.85 in    
Wind  
Wind Speed 27 mph (WSW)    
Max Wind Speed 33 mph    
Max Gust Speed 76 mph    
Averages and records for this station are not official NWS values.
T = Trace of Precipitation, MM = Missing Value Source: NWS Daily Summary

Daily Weather History Graph

Daily Weather History Graph

Search for Another Location

Airport or City:

Trip Planner

Search our weather history database for the weather conditions in past years. The results will help you decide how hot, cold, wet, or windy it might be!

Date:

Astronomy

Mar. 27, 2014 Rise Set
Actual Time 6:57 AM MDT 7:23 PM MDT
Civil Twilight 6:30 AM MDT 7:49 PM MDT
Nautical Twilight 5:59 AM MDT 8:21 PM MDT
Astronomical Twilight 5:28 AM MDT 8:52 PM MDT
Moon 4:47 AM MDT (3/27) 4:16 PM MDT (3/27)
Length of Visible Light 13h 19m
Length of Day
12h 26m
Waning Crescent, 12% of the Moon is Illuminated
Mar 27
Waning Crescent
Mar 30
New
Apr 7
First Quarter
Apr 15
Full
Apr 22
Last Quarter

Hourly Weather History & Observations

Time (MDT) Temp. Windchill Dew Point Humidity Pressure Visibility Wind Dir Wind Speed Gust Speed Precip Events Conditions
12:13 AM 19.4 °F - 17.6 °F 93% 29.67 in 0.2 mi North - - N/A Snow Heavy Snow
12:34 AM 19.4 °F - 17.6 °F 93% 29.68 in 0.2 mi North - - N/A Snow Heavy Snow
12:55 AM 19.4 °F - 17.6 °F 93% 29.67 in 0.2 mi North - - N/A Snow Heavy Snow
1:13 AM 19.4 °F - 17.6 °F 93% 29.65 in 0.2 mi North - - N/A Snow Heavy Snow
1:29 AM 19.4 °F - 17.6 °F 93% 29.66 in 0.2 mi North - - N/A Snow Heavy Snow
1:55 AM 19.4 °F - 17.6 °F 93% 29.67 in 0.2 mi North - - N/A Snow Heavy Snow
2:10 AM 19.4 °F - 17.6 °F 93% 29.67 in 0.2 mi North - - N/A Snow Heavy Snow
2:35 AM 19.4 °F - 15.8 °F 86% 29.67 in 0.2 mi North - - N/A Snow Light Snow
2:51 AM 19.4 °F - 15.8 °F 86% 29.68 in 0.2 mi North - - N/A Snow Heavy Snow
3:05 AM 19.4 °F - 15.8 °F 86% 29.69 in 0.2 mi North - - N/A Snow Heavy Snow
3:35 AM 19.4 °F - 15.8 °F 86% 29.69 in 0.2 mi North - - N/A Snow Snow
3:52 AM 19.4 °F - 15.8 °F 86% 29.70 in 0.2 mi North - - N/A Snow Heavy Snow
4:11 AM 17.6 °F - 15.8 °F 93% 29.70 in 0.2 mi North - - N/A Snow Light Snow
4:34 AM 17.6 °F - 15.8 °F 93% 29.71 in 0.2 mi North - - N/A   Overcast
4:55 AM 17.6 °F - 15.8 °F 93% 29.72 in 0.2 mi North - - N/A Snow Snow
5:09 AM 17.6 °F - 15.8 °F 93% 29.72 in 0.2 mi North - - N/A Snow Snow
5:55 AM 17.6 °F - 14.0 °F 86% 29.74 in 0.2 mi North - - N/A Snow Heavy Snow
6:14 AM 17.6 °F - 14.0 °F 86% 29.76 in 0.2 mi North - - N/A Snow Heavy Snow
6:30 AM 17.6 °F - 14.0 °F 86% 29.75 in 0.5 mi North - - N/A Snow Heavy Snow
6:48 AM 17.6 °F - 14.0 °F 86% 29.76 in 0.2 mi North - - N/A Snow Heavy Snow
7:09 AM 17.6 °F - 14.0 °F 86% 29.77 in 0.2 mi North - - N/A Snow Light Snow
7:29 AM 17.6 °F - 14.0 °F 86% 29.78 in 0.2 mi North - - N/A Snow Heavy Snow
7:54 AM 15.8 °F - 14.0 °F 93% 29.81 in 0.2 mi North - - N/A Snow Heavy Snow
8:09 AM 15.8 °F - 14.0 °F 93% 29.82 in 0.2 mi North - - N/A Snow Light Snow
8:35 AM 15.8 °F - 14.0 °F 93% 29.81 in 0.2 mi North - - N/A Fog Light Freezing Fog
8:51 AM 17.6 °F - 14.0 °F 86% 29.83 in 0.2 mi North - - N/A Snow Light Snow
9:14 AM 17.6 °F - 14.0 °F 86% 29.84 in 0.2 mi North - - N/A Snow Snow
9:34 AM 17.6 °F - 14.0 °F 86% 29.84 in 0.2 mi North - - N/A Snow Snow
9:43 AM 17.6 °F - 14.0 °F 86% 29.84 in 0.2 mi North - - N/A Snow Snow
10:11 AM 15.8 °F - 14.0 °F 93% 29.85 in 0.2 mi North - - N/A Fog Light Freezing Fog
10:35 AM 17.6 °F - 14.0 °F 86% 29.87 in 0.2 mi North - - N/A Snow Light Snow
10:54 AM 17.6 °F - 14.0 °F 86% 29.87 in 0.2 mi North - - N/A Snow Light Snow
11:10 AM 17.6 °F - 14.0 °F 86% 29.85 in 0.2 mi North - - N/A Snow Heavy Snow
11:24 AM 15.8 °F - 14.0 °F 93% 29.86 in 0.2 mi North - - N/A Snow Snow
11:54 AM 17.6 °F - 14.0 °F 86% 29.89 in 0.2 mi North - - N/A Snow Light Snow
12:10 PM 17.6 °F - 14.0 °F 86% 29.89 in 0.2 mi North - - N/A Fog Light Freezing Fog
12:35 PM 17.6 °F - 14.0 °F 86% 29.89 in 0.5 mi North - - N/A Snow Light Snow
12:55 PM 17.6 °F - 15.8 °F 93% 29.89 in 0.8 mi North - - N/A Snow Light Snow
1:12 PM 17.6 °F -2.2 °F 15.8 °F 93% 29.90 in 1.0 mi WSW 31.1 mph - N/A Snow Light Snow
1:21 PM 17.6 °F - 14.0 °F 86% 29.90 in 1.5 mi North - - N/A Snow Light Snow
1:55 PM 19.4 °F 1.4 °F 15.8 °F 86% 29.90 in 4.0 mi West 26.5 mph 35.7 mph N/A   Overcast
2:14 PM 19.4 °F 2.1 °F 15.8 °F 86% 29.90 in 7.0 mi WSW 24.2 mph 35.7 mph N/A   Overcast
2:27 PM 19.4 °F 3.6 °F 17.6 °F 93% 29.90 in 5.0 mi WSW 19.6 mph 31.1 mph N/A   Overcast
2:46 PM 19.4 °F -0.3 °F 15.8 °F 86% 29.88 in 0.8 mi SW 33.4 mph 76.0 mph N/A Snow Light Snow
3:11 PM 19.4 °F 1.1 °F 15.8 °F 86% 29.90 in 0.8 mi West 27.6 mph 44.9 mph N/A Snow Light Snow
3:26 PM 19.4 °F 0.5 °F 15.8 °F 86% 29.90 in 1.0 mi West 29.9 mph - N/A Snow Light Snow
3:52 PM 19.4 °F 2.5 °F 15.8 °F 86% 29.92 in 0.2 mi West 23.0 mph - N/A Snow Light Snow
4:15 PM 17.6 °F - 15.8 °F 93% 29.91 in 0.2 mi North - - N/A Snow Light Snow
4:31 PM 17.6 °F - 15.8 °F 93% 29.90 in 0.2 mi North - - N/A Snow Light Snow
4:55 PM 19.4 °F -0.3 °F 15.8 °F 86% 29.91 in 0.5 mi West 33.4 mph 47.2 mph N/A Snow Light Snow
5:15 PM 17.6 °F - 15.8 °F 93% 29.92 in 1.5 mi North - - N/A Snow Light Snow
5:35 PM 17.6 °F -0.6 °F 15.8 °F 93% 29.92 in 0.2 mi WSW 25.3 mph - N/A Snow Light Snow
5:55 PM 19.4 °F - 15.8 °F 86% 29.92 in 0.2 mi North - - N/A Snow Heavy Snow
6:15 PM 19.4 °F - 15.8 °F 86% 29.95 in 0.2 mi North - - N/A Snow Light Snow
6:34 PM 17.6 °F - 15.8 °F 93% 29.95 in 0.2 mi North - - N/A Snow Snow
6:54 PM 17.6 °F - 15.8 °F 93% 29.95 in 0.2 mi North - - N/A Snow Snow
7:15 PM 17.6 °F -1.9 °F 15.8 °F 93% 29.96 in 0.2 mi West 29.9 mph - N/A Snow Light Snow
7:34 PM 17.6 °F 0.9 °F 15.8 °F 93% 29.97 in 0.2 mi West 20.7 mph - N/A Snow Heavy Snow
7:55 PM 17.6 °F -1.0 °F 15.8 °F 93% 29.98 in 0.2 mi WSW 26.5 mph 32.2 mph N/A Fog Light Freezing Fog
8:13 PM 17.6 °F - 15.8 °F 93% 29.99 in 0.2 mi North - - N/A Snow Light Snow
8:33 PM 17.6 °F - 14.0 °F 86% 29.99 in 0.2 mi North - - N/A Snow Heavy Snow
8:55 PM 17.6 °F 1.7 °F 14.0 °F 86% 30.01 in 0.2 mi West 18.4 mph - N/A Snow Light Snow
9:15 PM 17.6 °F - 14.0 °F 86% 30.01 in 0.2 mi North - - N/A Snow Light Snow
9:34 PM 17.6 °F 1.7 °F 14.0 °F 86% 30.01 in 0.2 mi West 18.4 mph 31.1 mph N/A Snow Snow
9:55 PM 17.6 °F 0.1 °F 14.0 °F 86% 30.02 in 0.2 mi WSW 23.0 mph - N/A Snow Heavy Snow
10:14 PM 17.6 °F - 14.0 °F 86% 30.01 in 0.2 mi North - - N/A Snow Heavy Snow
10:35 PM 17.6 °F -1.0 °F 14.0 °F 86% 30.01 in 0.2 mi WSW 26.5 mph - N/A Snow Light Snow
10:55 PM 17.6 °F - 14.0 °F 86% 30.01 in 0.2 mi North - - N/A Snow Heavy Snow
11:09 PM 17.6 °F - 14.0 °F 86% 30.00 in 0.2 mi North - - N/A Snow Heavy Snow
11:34 PM 17.6 °F - 14.0 °F 86% 30.00 in 0.2 mi North - - N/A Snow Heavy Snow
11:44 PM 17.6 °F - 14.0 °F 86% 30.01 in 0.2 mi North - - N/A Snow Heavy Snow